Weather History for KPOF - October, 2014

Change the Weather History Date:

Sunday, October 26, 2014

  Actual Average Record
Temperature  
Mean Temperature 68 °F -  
Max Temperature 84 °F 65 °F 89 °F (1927)
Min Temperature 54 °F 43 °F 25 °F (1942)
Cooling Degree Days 3    
Growing Degree Days 18 (Base 50)    
Moisture  
Dew Point 58 °F    
Average Humidity 83    
Maximum Humidity 100    
Minimum Humidity 49    
Precipitation  
Precipitation 0.00 in - - ()
Sea Level Pressure  
Sea Level Pressure 29.96 in    
Wind  
Wind Speed 3 mph (East)    
Max Wind Speed 10 mph    
Max Gust Speed -    
Visibility 3 miles    
Events Fog    
Averages and records for this station are not official NWS values.
T = Trace of Precipitation, MM = Missing Value Source: NWS Daily Summary

Daily Weather History Graph

Daily Weather History Graph

Search for Another Location

Airport or City:

Trip Planner

Search our weather history database for the weather conditions in past years. The results will help you decide how hot, cold, wet, or windy it might be!

Date:

Astronomy

Oct. 26, 2014 Rise Set
Actual Time 7:19 AM CDT 6:10 PM CDT
Civil Twilight 6:52 AM CDT 6:37 PM CDT
Nautical Twilight 6:22 AM CDT 7:07 PM CDT
Astronomical Twilight 5:52 AM CDT 7:37 PM CDT
Moon 9:54 AM CDT (10/26) 8:25 PM CDT (10/26)
Length of Visible Light 11h 44m
Length of Day
10h 51m
Waxing Crescent, 8% of the Moon is Illuminated
Oct 26
Waxing Crescent
Oct 30
First Quarter
Nov 6
Full
Nov 14
Last Quarter
Nov 22
New

Hourly Weather History & Observations

Time (CDT) Temp. Heat Index Dew Point Humidity Pressure Visibility Wind Dir Wind Speed Gust Speed Precip Events Conditions
12:01 AM 57.2 °F - 57.2 °F 100% 29.99 in 0.2 mi Calm Calm - N/A Fog Fog
12:51 AM 57.2 °F - 55.4 °F 94% 29.98 in 0.2 mi Calm Calm - N/A Fog Fog
12:53 AM 57.0 °F - 55.0 °F 93% 29.97 in 0.2 mi Calm Calm - N/A Fog Fog
1:18 AM 57.0 °F - 55.0 °F 93% 29.98 in 0.2 mi Calm Calm - N/A Fog Fog
1:53 AM 55.9 °F - 54.0 °F 93% 29.97 in 0.2 mi North 3.5 mph - N/A Fog Fog
2:53 AM 55.9 °F - 54.0 °F 93% 29.97 in 0.2 mi Calm Calm - N/A Fog Fog
3:31 AM 55.0 °F - 53.1 °F 93% 29.98 in 0.5 mi Calm Calm - N/A Fog Fog
3:43 AM 55.0 °F - 53.1 °F 93% 29.98 in 0.2 mi Calm Calm - N/A Fog Fog
3:53 AM 55.0 °F - 53.1 °F 93% 29.97 in 0.2 mi Calm Calm - N/A Fog Fog
4:53 AM 55.0 °F - 53.1 °F 93% 29.98 in 0.2 mi Calm Calm - N/A Fog Fog
5:53 AM 55.9 °F - 53.1 °F 90% 29.99 in 0.2 mi Calm Calm - N/A Fog Fog
6:53 AM 55.9 °F - 54.0 °F 93% 29.99 in 0.2 mi Calm Calm - N/A Fog Fog
7:19 AM 54.0 °F - 52.0 °F 93% 29.99 in 0.8 mi NNW 4.6 mph - N/A   Mist
7:29 AM 54.0 °F - 52.0 °F 93% 29.99 in 0.2 mi North 4.6 mph - N/A Fog Fog
7:42 AM 54.0 °F - 52.0 °F 93% 29.99 in 0.2 mi NNE 3.5 mph - N/A Fog Fog
7:51 AM 55.4 °F - 53.6 °F 94% 29.99 in 0.5 mi NNE 4.6 mph - N/A Fog Fog
7:52 AM 55.0 °F - 53.1 °F 93% 29.99 in 0.5 mi NNE 3.5 mph - N/A Fog Fog
8:19 AM 57.9 °F - 55.9 °F 93% 30.00 in 0.2 mi NNE 5.8 mph - N/A Fog Fog
8:48 AM 60.8 °F - 57.2 °F 88% 30.00 in 0.8 mi NE 6.9 mph - N/A   Overcast
8:53 AM 61.0 °F - 57.9 °F 90% 30.00 in 1.2 mi NE 6.9 mph - N/A   Overcast
9:05 AM 61.0 °F - 57.9 °F 90% 30.01 in 2.5 mi NE 8.1 mph - N/A   Overcast
9:20 AM 61.0 °F - 57.9 °F 90% 30.01 in 0.8 mi NE 9.2 mph - N/A   Overcast
9:32 AM 61.0 °F - 59.0 °F 93% 30.01 in 0.2 mi NNE 5.8 mph - N/A Fog Fog
9:53 AM 62.1 °F - 60.1 °F 93% 30.01 in 0.2 mi ENE 5.8 mph - N/A Fog Fog
10:53 AM 64.0 °F - 61.0 °F 90% 30.00 in 0.8 mi East 4.6 mph - N/A   Overcast
11:00 AM 64.0 °F - 61.0 °F 90% 30.00 in 1.5 mi East 4.6 mph - N/A   Overcast
11:20 AM 64.9 °F - 62.1 °F 90% 30.00 in 2.0 mi Variable 3.5 mph - N/A   Overcast
11:40 AM 66.9 °F - 63.0 °F 87% 29.99 in 3.0 mi Calm Calm - N/A   Mostly Cloudy
11:51 AM 69.8 °F - 62.6 °F 78% 29.99 in 4.0 mi Calm Calm - N/A   Haze
11:53 AM 69.1 °F - 63.0 °F 81% 29.99 in 4.0 mi Calm Calm - N/A   Haze
12:53 PM 75.9 °F - 63.0 °F 64% 29.95 in 7.0 mi Variable 4.6 mph - N/A   Clear
1:53 PM 80.1 °F 81.5 °F 63.0 °F 56% 29.91 in 9.0 mi South 3.5 mph - N/A   Clear
2:53 PM 82.9 °F 83.7 °F 62.1 °F 49% 29.89 in 10.0 mi SSW 5.8 mph - N/A   Clear
3:53 PM 82.9 °F 83.7 °F 62.1 °F 49% 29.87 in 10.0 mi SW 8.1 mph - N/A   Clear
4:53 PM 82.0 °F 83.1 °F 63.0 °F 52% 29.86 in 10.0 mi South 6.9 mph - N/A   Clear
5:53 PM 78.1 °F - 63.0 °F 60% 29.86 in 7.0 mi South 5.8 mph - N/A   Clear
6:53 PM 73.9 °F - 63.0 °F 68% 29.86 in 8.0 mi South 4.6 mph - N/A   Clear
7:53 PM 73.0 °F - 62.1 °F 68% 29.86 in 10.0 mi South 8.1 mph - N/A   Clear
8:53 PM 73.9 °F - 61.0 °F 64% 29.84 in 9.0 mi South 9.2 mph - N/A   Clear
9:53 PM 71.1 °F - 61.0 °F 70% 29.85 in 9.0 mi SSW 10.4 mph - N/A   Clear
10:53 PM 68.0 °F - 60.1 °F 76% 29.86 in 9.0 mi South 3.5 mph - N/A   Clear
11:53 PM 68.0 °F - 60.1 °F 76% 29.84 in 9.0 mi South 6.9 mph - N/A   Clear